ROMMA est une association bénévole à but non lucratif. Votre soutien est indispensable : ADHERER à ROMMA ou FAIRE un DON

La Beaume - (05, Hautes Alpes)

Buëch (820 m)   Longitude: 5° 40' 9'' E   Latitude: 44° 32' 3'' N Station partenaire n°75
 

Détail journalier du     <<     >>

Température Precipitation Humidité Pression Vent Dir Rafale Dir. rafale Ensol.
Heure (°C) (mm) (%) (hPa) (km/h) (km/h) (min)
01:00 11.809210193SO6SO0
02:00 11.509110182SSO5OSO0
03:00 11.3091101803SSO0
04:00 11.309210172SO6SO0
05:00 11.309110172O6O0
06:00 11.009310162OSO6O0
07:00 11.009210172SSO8SO0
08:00 11.00931017000
09:00 11.309310171NNO6S0
10:00 12.1090101703NNO0
11:00 12.708810172ONO6NNO0
12:00 12.70.69010172N5N0
13:00 12.60.49210172ONO6ONO0
14:00 13.209210161ONO5ONO0
15:00 13.40.290101605N0
16:00 14.10851015000
17:00 14.308310153SSE10S0
18:00 14.2084101506SSO0
19:00 13.5087101405OSO0
20:00 13.408810152SE10SE0
21:00 13.4087101405NE0
22:00 13.808410146SSE18SSE0
23:00 13.7083101410SSE21SSE0
minuit 12.90.28810145SSE15S0

Graphique du 18-10-2019

 

Serveur OMMA